Station 46070 (LLNR 1198.1) - SOUTHWEST BERING SEA - 142NM NNE OF ATTU IS, AK Image indicating link to RSS feed of recent meteorological observations for station 46070


Conditions at 46070 as of
(12:30 pm HAST)
2230 GMT on 04/17/2024:
     

Click on the graph icon in the table below to see a time series plot of the last five days of that observation.

5-day plot - Wind Direction Wind Direction (WDIR):WSW ( 240 deg true )
5-day plot - Wind Speed Wind Speed (WSPD): 7.8 kts
5-day plot - Wind Gust Wind Gust (GST): 9.7 kts
5-day plot - Atmospheric Pressure Atmospheric Pressure (PRES):30.44 in
5-day plot - Air Temperature Air Temperature (ATMP): 34.5 °F
5-day plot - Water Temperature Water Temperature (WTMP): 37.0 °F
5-day plot - Dew Point Dew Point (DEWP): 28.6 °F
5-day plot - Wind Chill Wind Chill (CHILL): 27.3 °F
5-day plot - Wind Speed at 10 Meters Wind Speed at 10 meters (WSPD10M): 7.8 kts
5-day plot - Wind Speed at 20 Meters Wind Speed at 20 meters (WSPD20M): 7.8 kts
5-day plot -  Wind Speed, Wind Gust and Atmospheric Pressure Combined plot of Wind Speed, Gust, and Air Pressure
Supplemental Measurements
Highest 1-minute Wind Speed
Time (HAST)5-day plot - 1-Minute Wind Speed WSPD 5-day plot - 1-Minute Wind Direction WDIR
12:26 pm 7.8 kts-
Previous observations
TIME
(HAST)
5-day plot - Wind Direction
WDIR
 
5-day plot - Wind Speed
WSPD
kts
5-day plot - Wind Gust
GST
kts
5-day plot - Wave Height
WVHT
ft
5-day plot - Dominant Wave Period
DPD
sec
5-day plot - Average Wave Period
APD
sec
5-day plot - Mean Wave Direction
MWD
 
5-day plot - Atmospheric Pressure
PRES
in
5-day plot - Pressure Tendency
PTDY
in
5-day plot - Air Temperature
ATMP
°F
5-day plot - Water Temperature
WTMP
°F
5-day plot - Dew Point
DEWP
°F
5-day plot - Salinity
SAL
psu
5-day plot - Visibility
VIS
nmi
5-day plot - Tide (above MLLW)
TIDE
ft
2024-04-17 12:20 pmWSW 5.8 7.8 3.9 75.9NNE30.44- 34.5 37.0 28.8---
2024-04-17 12:10 pm SW 5.8 7.8 3.9-5.9NNE30.44- 34.5 37.0 28.8---
2024-04-17 12:00 pmWSW 3.9 5.8----30.44+0.00 34.5 37.0 28.2---
2024-04-17 11:50 amWSW 3.9 5.8 3.9 75.9 N30.44- 34.5 37.0 28.2---
2024-04-17 11:40 amWSW 5.8 7.8----30.44- 34.3 37.0 27.9---
2024-04-17 11:30 amWSW 5.8 7.8----30.44- 34.2 37.0 27.7---
2024-04-17 11:20 amWSW 5.8 9.7 3.9 75.9NNW30.44- 34.2 37.0 27.7---
2024-04-17 11:10 am SW 5.8 7.8 3.9-5.9NNW30.44- 34.2 37.0 27.9---
2024-04-17 11:00 amWSW 5.8 7.8----30.44+0.00 34.2 37.0 27.9---
2024-04-17 10:50 amWSW 5.8 7.8 3.9 75.9 N30.44- 34.0 37.0 27.7---
2024-04-17 10:40 amWSW 5.8 7.8 3.9-5.9 N30.44- 34.2 36.9 27.9---
2024-04-17 10:30 amWSW 5.8 7.8----30.44- 34.2 36.9 27.9---
2024-04-17 10:20 amWSW 5.8 7.8 4.3 76.1 N30.43- 34.0 36.9 27.7---
2024-04-17 10:10 amWSW 5.8 7.8 4.3-6.1 N30.44- 34.2 36.9 27.7---
2024-04-17 10:00 amWSW 5.8 7.8----30.44+0.00 34.2 36.9 27.5---
2024-04-17 09:50 am W 5.8 7.8 4.3 85.9NNE30.44- 34.0 36.9 27.1---
2024-04-17 09:40 amWSW 5.8 7.8----30.44- 34.0 36.9 27.0---
2024-04-17 09:30 amWSW 5.8 7.8----30.44- 34.0 36.9 27.0---
2024-04-17 09:20 am W 5.8 7.8 4.6 76.1 N30.44- 33.8 36.9 26.6---
2024-04-17 09:10 am W 5.8 7.8 4.6-6.1 N30.44- 34.0 36.9 26.8---
2024-04-17 09:00 am W 3.9 5.8----30.44+0.00 33.8 36.9 26.2---
2024-04-17 08:50 am W 3.9 5.8 4.6 76.0NNW30.43- 33.8 36.9 26.4---
2024-04-17 08:40 am W 3.9 5.8----30.43- 33.6 36.9 26.2---
2024-04-17 08:30 amWNW 5.8 7.8----30.43- 33.6 36.9 26.1---
2024-04-17 08:20 amWNW 5.8 7.8 4.6 76.0 N30.43- 33.6 36.9 25.9---
2024-04-17 08:10 amWNW 5.8 7.8 4.6-6.0 N30.43- 33.8 36.9 26.1---
2024-04-17 08:00 amWNW 5.8 7.8----30.43+0.00 33.8 36.9 25.5---
2024-04-17 07:50 amWNW 5.8 7.8 4.3 85.8 N30.43- 33.6 36.9 25.2---
2024-04-17 07:40 am NW 5.8 7.8 4.3-5.8 N30.43- 33.6 36.9 25.3---
2024-04-17 07:30 am NW 5.8 7.8----30.43- 33.6 36.9 25.0---
2024-04-17 07:20 am NW 5.8 9.7 4.6 75.8NNW30.43- 33.6 36.9 25.2---
2024-04-17 07:10 am NW 5.8 7.8 4.6-5.8NNW30.43- 33.4 36.9 24.8---
2024-04-17 07:00 am NW 5.8 7.8----30.43+0.00 33.4 36.9 25.2---
2024-04-17 06:50 am NW 5.8 7.8 4.6 75.9 N30.43- 33.4 36.9 25.2---
2024-04-17 06:40 am NW 5.8 7.8 4.6-5.9 N30.43- 33.4 36.9 25.0---
2024-04-17 06:30 am NW 7.8 9.7----30.43- 33.4 36.9 24.6---
2024-04-17 06:20 am NW 5.8 9.7 4.9 86.0 N30.43- 33.4 36.9 24.6---
2024-04-17 06:10 am NW 7.8 9.7 4.9-6.0 N30.43- 33.3 36.9 24.4---
2024-04-17 06:00 amNNW 7.8 9.7----30.43+0.00 33.4 36.9 24.8---
2024-04-17 05:50 am NW 7.8 9.7 4.6 75.8NNW30.44- 33.4 36.9 24.6---
2024-04-17 05:40 am NW 7.8 9.7 4.6-5.8NNW30.43- 33.4- 24.6---
2024-04-17 05:30 am NW 7.8 11.7----30.44- 33.3 36.9 24.3---
2024-04-17 05:20 am NW 7.8 11.7 4.9 86.0 N30.44- 33.1 36.9 23.9---
2024-04-17 05:10 am NW 7.8 11.7 4.9-6.0 N30.44- 33.1 36.9 24.1---
2024-04-17 05:00 am NW 9.7 11.7----30.43+0.00 33.1 36.9 23.9---
2024-04-17 04:50 am NW 7.8 11.7 4.9 85.9 N30.43- 33.1 36.9 23.7---
2024-04-17 04:40 am NW 9.7 11.7----30.43- 32.9 36.9 23.2---
2024-04-17 04:30 am NW 7.8 11.7----30.43- 32.9 36.9 23.4---
2024-04-17 04:20 am NW 9.7 11.7 4.9 85.9NNE30.43- 32.9 36.9 23.2---
2024-04-17 04:10 amWNW 9.7 11.7 4.9-5.9NNE30.43- 32.9 36.9 23.2---
2024-04-17 04:00 am NW 9.7 11.7----30.44+0.00 32.9 36.9 23.2---
2024-04-17 03:50 am NW 9.7 13.6 5.2 75.9NNW30.44- 32.9 36.9 23.2---
2024-04-17 03:40 amWNW 7.8 11.7 5.2-5.9NNW30.44- 32.9 36.9 23.0---
2024-04-17 03:30 amWNW 9.7 11.7----30.44- 32.9 36.9 22.6---
2024-04-17 03:20 amWNW 9.7 13.6 5.2 85.8 N30.44- 32.9 36.9 22.8---
2024-04-17 03:10 amWNW 9.7 11.7----30.44- 32.7 36.9 22.5---
2024-04-17 03:00 amWNW 9.7 11.7----30.44+0.00 32.7 36.9 22.5---
2024-04-17 02:50 amWNW 9.7 11.7 5.2 86.1 N30.45- 32.7 36.9 22.5---
2024-04-17 02:40 am NW 9.7 13.6----30.45- 32.7 36.9 22.6---
2024-04-17 02:30 amWNW 9.7 11.7----30.44- 32.7 36.9 22.5---
2024-04-17 02:20 amWNW 9.7 13.6 5.6 86.0 N30.44- 32.7 36.9 22.6---
2024-04-17 02:10 am NW 9.7 13.6 5.6-6.0 N30.44- 32.5 36.9 22.5---
2024-04-17 02:00 am NW 7.8 11.7----30.44+0.00 32.7 36.9 23.0---
2024-04-17 01:50 am NW 7.8 11.7 5.2 85.9 N30.44- 32.5 36.9 22.1---
2024-04-17 01:40 am NW 9.7 13.6----30.44- 32.5 36.9 22.1---
2024-04-17 01:30 amWNW 9.7 13.6----30.44- 32.5 36.9 22.3---
2024-04-17 01:20 amWNW 11.7 13.6 5.6 86.2 N30.44- 32.7 36.9 22.6---
2024-04-17 01:10 amWNW 9.7 13.6 5.6-6.2 N30.44- 32.5 36.9 22.3---
2024-04-17 01:00 amWNW 11.7 13.6----30.44+0.01 32.5 36.9 22.1---
2024-04-17 12:50 am NW 9.7 13.6 5.9 86.2 N30.44- 32.4 37.0 21.6---
2024-04-17 12:40 amWNW 11.7 13.6----30.44- 32.4 37.0 21.4---
2024-04-17 12:30 amWNW 9.7 13.6----30.44- 32.5 37.0 21.9---
2024-04-17 12:20 amWNW 9.7 13.6 5.9 86.2 N30.44- 32.4 37.0 21.4---
2024-04-17 12:10 am NW 9.7 13.6 5.9-6.2 N30.44- 32.4 37.0 21.4---
2024-04-17 12:00 am NW 9.7 15.5----30.44+0.03 32.4 37.0 21.7---
2024-04-16 11:50 pm NW 9.7 13.6 5.9 86.4NNW30.44- 32.2 37.0 21.6---
2024-04-16 11:40 pm NW 9.7 13.6----30.44- 32.2 37.0 21.2---
2024-04-16 11:30 pm NW 7.8 11.7----30.44- 32.2- 21.2---
2024-04-16 11:20 pm NW 11.7 15.5 5.9 86.0 N30.44- 32.2 37.0 21.2---
2024-04-16 11:10 pmWNW 11.7 15.5 5.9-6.0 N30.44- 32.4 37.0 21.7---
2024-04-16 11:00 pmWNW 9.7 15.5----30.44+0.03 32.4 37.0 22.1---
2024-04-16 10:50 pmWNW 9.7 13.6 6.2 86.3 N30.44- 32.2 37.0 21.4---
2024-04-16 10:40 pmWNW 9.7 13.6 6.2-6.3 N30.44- 32.0 37.0 20.7---
2024-04-16 10:30 pm NW 11.7 17.5----30.44- 32.0 37.0 20.8---
2024-04-16 10:20 pm NW 11.7 15.5 6.6 96.5NNE30.44- 32.0 37.0 20.8---
2024-04-16 10:10 pmWNW 11.7 17.5 6.6-6.5NNE30.44- 32.0 37.0 20.7---
2024-04-16 10:00 pm NW 11.7 15.5----30.43+0.03 32.2 37.0 21.2---
2024-04-16 09:50 pm NW 11.7 19.4 6.2 86.4 N30.43- 32.2 37.0 21.2---
2024-04-16 09:40 pm NW 11.7 15.5----30.43- 32.2 37.0 21.6---
2024-04-16 09:30 pm NW 13.6 15.5----30.42- 32.4 37.0 22.1---
2024-04-16 09:20 pmWNW 11.7 15.5 6.6 86.4 N30.42- 32.4 37.0 22.6---
2024-04-16 09:10 pm NW 9.7 13.6 6.6-6.4 N30.42- 32.4 37.0 22.5---
2024-04-16 09:00 pmWNW 9.7 13.6----30.42+0.02 32.2 37.0 21.6---
2024-04-16 08:50 pm NW 9.7 13.6 6.9 86.5 N30.42- 32.0 37.0 21.4---
2024-04-16 08:40 pmWNW 9.7 13.6----30.42- 32.2 37.0 21.7---
2024-04-16 08:30 pm NW 11.7 15.5----30.42- 32.0 37.0 21.0---
2024-04-16 08:20 pmWNW 11.7 17.5 6.9 96.5 N30.41- 32.0 37.0 20.8---
2024-04-16 08:10 pmWNW 11.7 15.5----30.41- 32.0 37.0 20.8---
2024-04-16 08:00 pmWNW 11.7 15.5----30.41+0.03 32.0 37.0 21.2---
2024-04-16 07:50 pmWNW 11.7 17.5 6.6 86.4 N30.41- 32.0 37.0 21.6---
2024-04-16 07:40 pmWNW 11.7 15.5 6.6-6.4 N30.41- 32.0 37.0 21.7---
2024-04-16 07:30 pmWNW 11.7 15.5----30.41- 32.0 37.0 22.3---
2024-04-16 07:20 pmWNW 11.7 15.5 6.9 86.5 N30.40- 32.0 37.0 21.7---
2024-04-16 07:10 pmWNW 11.7 17.5 6.9-6.5 N30.40- 32.0 37.0 22.1---
2024-04-16 07:00 pmWNW 9.7 15.5----30.40+0.03 32.0 37.0 21.9---
2024-04-16 06:50 pmWNW 9.7 11.7 6.9 96.5 N30.40- 31.8 37.0 21.4---
2024-04-16 06:40 pm NW 11.7 15.5----30.40- 31.8 37.0 20.8---
2024-04-16 06:30 pm NW 11.7 15.5----30.40- 31.6 37.0 20.8---
2024-04-16 06:20 pm NW 11.7 15.5 7.2 96.5 N30.40- 31.8 37.0 21.6---
2024-04-16 06:10 pmWNW 11.7 15.5----30.39- 32.0 37.0 21.4---
2024-04-16 06:00 pm NW 11.7 15.5----30.40+0.04 32.0 37.0 21.6---
2024-04-16 05:50 pm NW 9.7 13.6 6.9 86.4NNW30.39- 31.8 37.0 20.8---
2024-04-16 05:40 pm NW 11.7 13.6----30.39- 31.8 37.0 21.2---
2024-04-16 05:30 pm NW 11.7 15.5----30.39- 31.8 37.0 21.9---
2024-04-16 05:20 pm NW 9.7 15.5 7.2 96.5NNE30.39- 31.8 37.0 21.9---
2024-04-16 05:10 pm NW 9.7 13.6 7.2-6.5NNE30.38- 31.8 37.0 21.7---
2024-04-16 05:00 pm NW 9.7 15.5----30.38+0.03 31.8 37.0 21.2---
2024-04-16 04:50 pm NW 9.7 13.6 7.9 86.7NNW30.38- 31.8 37.0 21.0---
2024-04-16 04:40 pm NW 11.7 15.5----30.38- 31.8 37.0 21.4---
2024-04-16 04:30 pm NW 11.7 13.6----30.38- 31.8 37.0 21.7---
2024-04-16 04:20 pm NW 11.7 17.5 7.9 86.7NNW30.37- 31.8 37.0 21.9---
2024-04-16 04:10 pm NW 11.7 17.5 7.9-6.7NNW30.37- 32.0 37.0 22.6---
2024-04-16 04:00 pm NW 11.7 15.5----30.37+0.03 32.0 37.0 22.6---
2024-04-16 03:50 pm NW 13.6 17.5 7.5 96.5 N30.37- 32.0 37.0 22.3---
2024-04-16 03:40 pm NW 13.6 17.5----30.37- 32.0 37.0 22.5---
2024-04-16 03:30 pm NW 13.6 19.4----30.37- 32.0 37.0 22.3---
2024-04-16 03:20 pm NW 13.6 17.5 7.5 96.7 N30.37- 32.0 37.0 22.5---
2024-04-16 03:10 pm NW 13.6 17.5 7.5-6.7 N30.36- 32.0 37.0 22.8---
2024-04-16 03:00 pm NW 13.6 17.5----30.36+0.03 32.0 37.0 22.6---
2024-04-16 02:50 pm NW 11.7 15.5 6.9 96.6 N30.36- 32.0 37.0 22.8---
2024-04-16 02:40 pm NW 13.6 17.5----30.36- 32.0 37.0 23.0---
2024-04-16 02:30 pm NW 13.6 17.5----30.36- 32.0 37.0 23.2---
2024-04-16 02:20 pm NW 11.7 17.5 7.5 86.9NNW30.35- 32.0 37.0 23.5---
2024-04-16 02:10 pm NW 11.7 15.5 7.5-6.9NNW30.35- 32.2 37.0 24.3---
2024-04-16 02:00 pmWNW 9.7 15.5----30.35+0.04 32.0 37.0 24.6---
2024-04-16 01:50 pmWNW 9.7 11.7 7.2 96.9NNW30.35- 32.0 37.0 24.3---
2024-04-16 01:40 pmWNW 7.8 11.7----30.35- 32.0 37.0 23.7---
2024-04-16 01:10 pmWNW 7.8 11.7 6.9-6.7NNW30.35- 32.0 37.0 23.0---
2024-04-16 01:00 pmWNW 7.8 11.7----30.34+0.05 32.0 36.9 23.0---
2024-04-16 12:50 pmWNW 7.8 11.7 7.5 96.7NNW30.34- 31.8 36.9 22.5---
2024-04-16 12:40 pmWNW 7.8 11.7----30.34- 31.6 36.9 22.3---
2024-04-16 12:30 pm NW 7.8 9.7----30.34- 31.6 36.9 22.3---
2024-04-16 12:20 pmWNW 7.8 9.7 7.5 96.7NNW30.33- 31.6 36.9 22.5---
2024-04-16 12:10 pm NW 7.8 11.7 7.5-6.7NNW30.33- 31.6 36.9 22.3---
2024-04-16 12:00 pm NW 7.8 11.7----30.33+0.06 31.5 36.9 21.7---
2024-04-16 11:50 am NW 7.8 11.7 7.5 96.5NNW30.32- 31.5 36.9 21.7---

Detailed Wave Summary
for 46070 as of (12:10 pm HAST)
2210 GMT on 04/17/2024:

These wave data are displayed in rounded times.

     

Click on the graph icon in the table below to see a time series plot of the last five days of that observation.

5-day plot - Significant Wave Height Significant Wave Height (WVHT): 3.9 ft
5-day plot - Swell Height Swell Height (SwH): 3.6 ft
5-day plot - Swell Period Swell Period (SwP): 7.1 sec
5-day plot - Swell Direction Swell Direction (SwD):NNE
5-day plot - Wind Wave Height Wind Wave Height (WWH): 1.3 ft
5-day plot - Wind Wave Period Wind Wave Period (WWP): 4.0 sec
5-day plot - Wind Wave Direction Wind Wave Direction (WWD):NNW
5-day plot - Wave Steepness Wave Steepness (STEEPNESS): AVERAGE
5-day plot - Average Wave Period Average Wave Period (APD): 5.9 sec
Previous observations
TIME
(HAST)
5-day plot - Wave Height
WVHT
ft
5-day plot - Swell Height
SwH
ft
5-day plot - Swell Period
SwP
sec
5-day plot - Swell Direction
SwD
 
5-day plot - Wind Wave Height
WWH
ft
5-day plot - Wind Wave Period
WWP
sec
5-day plot - Wind Wave Direction
WWD
 
5-day plot - Wave Steepness
STEEPNESS
 
5-day plot - Average Wave Period
APD
sec
2024-04-17 11:40 am 3.9 3.9 6.7 N 1.3 4.0 NW STEEP 5.9
2024-04-17 11:10 am 3.9 3.6 6.7NNW 1.0 3.8 NNW STEEP 5.9
2024-04-17 10:40 am 3.9 3.9 7.1 N 1.0 3.8 NW AVERAGE 5.9
2024-04-17 10:10 am 4.3 3.9 6.7 N 1.3 4.0 NNW STEEP 6.1
2024-04-17 09:40 am 4.3 3.9 7.7NNE 1.3 3.7 NNW AVERAGE 5.9
2024-04-17 09:10 am 4.6 4.3 7.1 N 1.3 3.7 NNW STEEP 6.1
2024-04-17 08:40 am 4.6 4.3 7.1NNW 1.3 4.0 NW STEEP 6.0
2024-04-17 08:10 am 4.6 4.3 7.1 N 1.3 3.8 WNW STEEP 6.0
2024-04-17 07:40 am 4.3 4.3 7.7 N 1.3 3.8 NW AVERAGE 5.8
2024-04-17 07:10 am 4.6 4.3 7.1NNW 1.3 3.8 NNW STEEP 5.8
2024-04-17 06:40 am 4.6 4.3 7.1 N 1.3 3.7 NNW STEEP 5.9
2024-04-17 06:10 am 4.9 4.6 7.7 N 1.3 3.4 NNW AVERAGE 6.0
2024-04-17 05:40 am 4.6 4.3 7.1NNW 1.3 3.7 NNW STEEP 5.8
2024-04-17 05:10 am 4.9 4.6 7.7 N 1.3 3.8 WNW AVERAGE 6.0
2024-04-17 04:40 am 4.9 4.6 7.7 N 1.6 4.2 NNW AVERAGE 5.9
2024-04-17 04:10 am 4.9 4.6 7.7NNE 1.6 3.4 NW AVERAGE 5.9
2024-04-17 03:40 am 5.2 5.2 7.1NNW 1.6 3.1 NW STEEP 5.9
2024-04-17 03:10 am 5.2 4.6 7.7 N 2.0 4.2 NW AVERAGE 5.8
2024-04-17 02:40 am 5.2 4.9 7.7 N 2.0 4.3 NW AVERAGE 6.1
2024-04-17 02:10 am 5.6 4.9 7.7 N 2.3 4.8 NW AVERAGE 6.0
2024-04-17 01:40 am 5.2 4.6 8.3 N 2.3 4.5 NNW AVERAGE 5.9
2024-04-17 01:10 am 5.6 5.2 8.3 N 2.3 4.8 NNW AVERAGE 6.2
2024-04-17 12:40 am 5.9 5.6 8.3 N 2.6 4.8 NNW AVERAGE 6.2
2024-04-17 12:10 am 5.9 5.6 8.3 N 2.0 4.5 NW AVERAGE 6.2
2024-04-16 11:40 pm 5.9 5.6 8.3NNW 1.6 4.0 NW AVERAGE 6.4
2024-04-16 11:10 pm 5.9 5.2 8.3 N 2.6 4.8 NNW AVERAGE 6.0
2024-04-16 10:40 pm 6.2 5.9 8.3 N 2.3 4.3 NNW AVERAGE 6.3
2024-04-16 10:10 pm 6.6 5.9 9.1NNE 3.0 4.8 NNW AVERAGE 6.5
2024-04-16 09:40 pm 6.2 5.9 8.3- 2.6 5.0 NNW AVERAGE 6.4
2024-04-16 09:10 pm 6.6 6.2 8.3 N 2.6 5.0 NNW AVERAGE 6.4
2024-04-16 08:40 pm 6.9 6.2 8.3 N 2.3 4.3 NW AVERAGE 6.5
2024-04-16 08:10 pm 6.9 6.2 9.1 N 3.0 5.9 NW AVERAGE 6.5
2024-04-16 07:40 pm 6.6 5.9 8.3 N 3.0 5.3 NW AVERAGE 6.4
2024-04-16 07:10 pm 6.9 6.2 8.3 N 3.0 5.0 NNW AVERAGE 6.5
2024-04-16 06:40 pm 6.9 6.2 9.1 N 2.6 5.3 NW AVERAGE 6.5
2024-04-16 06:10 pm 7.2 6.6 9.1 N 2.6 5.3 NNW AVERAGE 6.5
2024-04-16 05:40 pm 6.9 6.6 8.3NNW 3.0 4.8 NNW AVERAGE 6.4
2024-04-16 05:10 pm 7.2 6.6 9.1NNE 2.6 4.3 NNW AVERAGE 6.5
2024-04-16 04:40 pm 7.9 7.2 8.3NNW 3.0 5.0 NNW STEEP 6.7
2024-04-16 04:10 pm 7.9 7.2 8.3NNW 3.0 5.3 NNW STEEP 6.7
2024-04-16 03:40 pm 7.5 6.2 9.1 N 4.3 6.2 NW AVERAGE 6.5
2024-04-16 03:10 pm 7.5 6.6 9.1- 3.9 5.3 N AVERAGE 6.7
2024-04-16 02:40 pm 6.9 5.9 9.1- 3.6 5.9 WNW AVERAGE 6.6
2024-04-16 02:10 pm 7.5 6.9 8.3NNW 2.6 5.3 NNW STEEP 6.9
2024-04-16 01:40 pm 7.2 7.2 9.1NNW 1.6 3.8 N AVERAGE 6.9
2024-04-16 01:10 pm 6.9 6.9 9.1NNW 1.6 4.0 NNW AVERAGE 6.7
2024-04-16 12:40 pm 7.5 7.5 9.1NNW 2.0 3.8 NW AVERAGE 6.7
2024-04-16 12:10 pm 7.5 7.2 9.1NNW 1.6 3.2 N AVERAGE 6.7

Plot of wave energy versus frequency (and period)